User: anonymous   Login
Location: Colonia Mina de C?rbuni
(46.1667°N, 22.7167°E)
Time: 19:30:07
(UTC+00:00)
Language:

BlueWalker 3 - Orbit

View from above orbital plane
View from above orbital plane
View from above satellite
View from above satellite

Ground track
Ground track

The orbit data is extracted from the following two-line orbital elements,

1 53807U 22111AL  23153.36670850  .00006093  00000-0  28728-3 0  9997
2 53807  53.1968 141.0699 0013363   7.9622 352.1584 15.20752910 40193
Epoch (UTC): 02 June 2023 08:48:03
Eccentricity: 0.0013363
inclination: 53.1968°
perigee height: 494 km
apogee height: 513 km
right ascension of ascending node: 141.0699°
argument of perigee: 7.9622°
revolutions per day: 15.20752910
mean anomaly at epoch: 352.1584°
orbit number at epoch: 4019

The dashed part of the orbit path shows where the satellite is in the earth's shadow,  

DLR